TimeMST,TemperatureF,Dew PointF,Humidity,Sea Level PressureIn,VisibilityMPH,Wind Direction,Wind SpeedMPH,Gust SpeedMPH,PrecipitationIn,Events,Conditions,WindDirDegrees,DateUTC
12:15 AM,44.6,10.4,25,29.97,10.0,WSW,13.8,23.0,N/A,,Clear,250,2011-11-11 07:15:00
12:35 AM,42.8,10.4,27,29.97,10.0,WSW,12.7,20.7,N/A,,Clear,250,2011-11-11 07:35:00
12:55 AM,44.6,10.4,25,29.96,10.0,West,19.6,25.3,N/A,,Clear,260,2011-11-11 07:55:00
1:15 AM,44.6,10.4,25,29.96,10.0,WSW,16.1,24.2,N/A,,Clear,250,2011-11-11 08:15:00
1:35 AM,42.8,10.4,27,29.96,10.0,West,8.1,-,N/A,,Clear,270,2011-11-11 08:35:00
1:55 AM,42.8,10.4,27,29.95,10.0,West,10.4,20.7,N/A,,Clear,270,2011-11-11 08:55:00
2:16 AM,42.8,10.4,27,29.95,10.0,West,8.1,-,N/A,,Clear,260,2011-11-11 09:16:00
2:35 AM,42.8,10.4,27,29.96,10.0,WSW,10.4,25.3,N/A,,Clear,250,2011-11-11 09:35:00
2:55 AM,42.8,10.4,27,29.95,10.0,WSW,10.4,17.3,N/A,,Clear,240,2011-11-11 09:55:00
3:15 AM,42.8,10.4,27,29.94,10.0,WSW,13.8,19.6,N/A,,Clear,250,2011-11-11 10:15:00
3:35 AM,42.8,8.6,25,29.94,10.0,SW,11.5,16.1,N/A,,Clear,220,2011-11-11 10:35:00
4:15 AM,42.8,8.6,25,29.91,10.0,WSW,9.2,20.7,N/A,,Clear,240,2011-11-11 11:15:00
4:35 AM,42.8,8.6,25,29.91,10.0,WSW,8.1,-,N/A,,Clear,250,2011-11-11 11:35:00
4:55 AM,41.0,8.6,26,29.91,10.0,East,6.9,-,N/A,,Clear,100,2011-11-11 11:55:00
5:15 AM,42.8,8.6,25,29.90,10.0,North,6.9,-,N/A,,Clear,360,2011-11-11 12:15:00
5:35 AM,42.8,8.6,25,29.90,10.0,West,5.8,-,N/A,,Clear,280,2011-11-11 12:35:00
5:55 AM,42.8,8.6,25,29.89,10.0,SW,5.8,-,N/A,,Clear,220,2011-11-11 12:55:00
6:35 AM,42.8,6.8,23,29.87,10.0,SSW,6.9,-,N/A,,Clear,200,2011-11-11 13:35:00
6:55 AM,42.8,8.6,25,29.87,10.0,WSW,8.1,-,N/A,,Clear,250,2011-11-11 13:55:00
7:15 AM,42.8,6.8,23,29.87,10.0,SW,6.9,-,N/A,,Clear,230,2011-11-11 14:15:00
7:35 AM,42.8,6.8,23,29.85,10.0,SSW,9.2,-,N/A,,Clear,210,2011-11-11 14:35:00
7:55 AM,42.8,8.6,25,29.84,10.0,SW,3.5,-,N/A,,Clear,230,2011-11-11 14:55:00
8:15 AM,46.4,6.8,20,29.84,10.0,SW,9.2,18.4,N/A,,Clear,230,2011-11-11 15:15:00
8:35 AM,46.4,6.8,20,29.84,10.0,SW,6.9,16.1,N/A,,Clear,230,2011-11-11 15:35:00
8:55 AM,46.4,6.8,20,29.83,10.0,SW,4.6,-,N/A,,Clear,230,2011-11-11 15:55:00
9:15 AM,50.0,6.8,17,29.82,10.0,NNE,8.1,-,N/A,,Clear,30,2011-11-11 16:15:00
9:55 AM,-9999,-9999,N/A,29.81,10.0,SW,12.7,25.3,N/A,,Clear,230,2011-11-11 16:55:00
10:15 AM,-9999,-9999,N/A,29.80,10.0,WSW,9.2,17.3,N/A,,Clear,240,2011-11-11 17:15:00
10:35 AM,-9999,-9999,N/A,29.79,10.0,WSW,13.8,21.9,N/A,,Clear,240,2011-11-11 17:35:00
10:55 AM,-9999,-9999,N/A,29.79,10.0,WSW,15.0,24.2,N/A,,Clear,240,2011-11-11 17:55:00
11:15 AM,53.6,6.8,15,29.78,10.0,SW,13.8,21.9,N/A,,Clear,230,2011-11-11 18:15:00
11:35 AM,53.6,6.8,15,29.76,10.0,WSW,16.1,24.2,N/A,,Clear,240,2011-11-11 18:35:00
11:55 AM,55.4,6.8,14,29.75,10.0,SW,15.0,24.2,N/A,,Clear,230,2011-11-11 18:55:00
12:15 PM,55.4,6.8,14,29.74,10.0,SW,17.3,24.2,N/A,,Clear,220,2011-11-11 19:15:00
12:35 PM,55.4,6.8,14,29.73,10.0,SW,15.0,20.7,N/A,,Clear,220,2011-11-11 19:35:00
12:55 PM,55.4,6.8,14,29.72,10.0,SW,16.1,21.9,N/A,,Clear,220,2011-11-11 19:55:00
1:15 PM,55.4,6.8,14,29.71,10.0,SW,16.1,20.7,N/A,,Clear,220,2011-11-11 20:15:00
1:35 PM,55.4,6.8,14,29.70,10.0,SW,16.1,23.0,N/A,,Clear,220,2011-11-11 20:35:00
1:55 PM,55.4,6.8,14,29.69,10.0,SW,12.7,21.9,N/A,,Clear,220,2011-11-11 20:55:00
2:15 PM,55.4,6.8,14,29.68,10.0,SSW,15.0,-,N/A,,Clear,210,2011-11-11 21:15:00
2:35 PM,55.4,6.8,14,29.68,10.0,SW,13.8,20.7,N/A,,Clear,230,2011-11-11 21:35:00
2:55 PM,53.6,6.8,15,29.67,10.0,SSW,11.5,21.9,N/A,,Clear,210,2011-11-11 21:55:00
3:35 PM,53.6,5.0,14,29.65,10.0,SW,15.0,20.7,N/A,,Clear,220,2011-11-11 22:35:00
3:55 PM,53.6,3.2,13,29.65,10.0,SW,16.1,25.3,N/A,,Clear,230,2011-11-11 22:55:00
4:15 PM,-9999,-9999,N/A,29.63,10.0,SW,12.7,21.9,N/A,,Clear,220,2011-11-11 23:15:00
4:35 PM,-9999,-9999,N/A,29.63,10.0,SSW,13.8,20.7,N/A,,Clear,210,2011-11-11 23:35:00
4:55 PM,-9999,-9999,N/A,29.63,10.0,SSW,12.7,23.0,N/A,,Clear,210,2011-11-11 23:55:00
5:15 PM,-9999,-9999,N/A,29.62,10.0,SSW,11.5,17.3,N/A,,Clear,210,2011-11-12 00:15:00
5:35 PM,-9999,-9999,N/A,29.62,10.0,SW,8.1,-,N/A,,Clear,220,2011-11-12 00:35:00
5:55 PM,-9999,-9999,N/A,29.60,10.0,South,9.2,-,N/A,,Clear,190,2011-11-12 00:55:00
6:35 PM,-9999,-9999,N/A,29.59,10.0,SSE,8.1,-,N/A,,Clear,150,2011-11-12 01:35:00
6:55 PM,-9999,-9999,N/A,29.58,10.0,SE,8.1,17.3,N/A,,Clear,140,2011-11-12 01:55:00
7:15 PM,-9999,-9999,N/A,29.57,10.0,SE,10.4,-,N/A,,Clear,140,2011-11-12 02:15:00
7:35 PM,-9999,-9999,N/A,29.56,10.0,SSE,10.4,-,N/A,,Clear,150,2011-11-12 02:35:00
8:15 PM,-9999,-9999,N/A,29.55,10.0,SSE,15.0,19.6,N/A,,Clear,160,2011-11-12 03:15:00
8:55 PM,-9999,-9999,N/A,29.54,10.0,SE,8.1,-,N/A,,Clear,140,2011-11-12 03:55:00
9:15 PM,-9999,-9999,N/A,29.53,10.0,SE,10.4,-,N/A,,Clear,130,2011-11-12 04:15:00
9:35 PM,-9999,-9999,N/A,29.53,10.0,SSE,12.7,-,N/A,,Mostly Cloudy,150,2011-11-12 04:35:00
9:55 PM,-9999,-9999,N/A,29.53,10.0,ESE,9.2,-,N/A,,Mostly Cloudy,110,2011-11-12 04:55:00
10:15 PM,-9999,-9999,N/A,29.52,10.0,SE,5.8,-,N/A,,Mostly Cloudy,130,2011-11-12 05:15:00
10:35 PM,-9999,-9999,N/A,29.51,10.0,South,6.9,-,N/A,,Clear,190,2011-11-12 05:35:00
10:55 PM,-9999,-9999,N/A,29.50,10.0,South,4.6,-,N/A,,Clear,190,2011-11-12 05:55:00
11:15 PM,-9999,-9999,N/A,29.48,10.0,Calm,Calm,-,N/A,,Clear,0,2011-11-12 06:15:00
11:35 PM,-9999,-9999,N/A,29.47,10.0,SE,8.1,-,N/A,,Clear,130,2011-11-12 06:35:00
11:55 PM,-9999,-9999,N/A,29.46,10.0,SE,5.8,-,N/A,,Clear,140,2011-11-12 06:55:00